CZ-3B DEB, 39334

Orbit data source: Space-Track

CZ-3B DEB, 39334 is space debris in HEO originally from a launch on Sat, 04 Sep 2010 UTC launched from the Xichang Space Center, China (XSC). Debris objects in space refer to the collection of defunct objects orbiting the Earth. Examples of debris include non-operational satellites, rocket bodies, and fragments generated from explosions, collisions, or faulty payload assembly.

Loading next visibility...
Identifier
39334, 2010-042F
Orbit
HEO
Country
Flag of CNCN / PRC
Related business
Manufacturer
CALT
Mission
Spacecraft
Bus & Motor
Unknown
Mass
Unknown
Launch date (UTC)
2010-09-04 (16 years ago)
Launch vehicle
Unknown
Launch site
Xichang Space Center, China (XSC)
Object type
Payload
Rocket body
Debris
Shape & HBR
Unknown shape, 0.3 m
Radar Cross Section
Medium (>0.1 m² and <1 m²)

Expand to show TLE details & history
Last TLE update: 2 days ago

TLE from 2 days ago
0 CZ-3B DEB
1 39334U 10042F   26234.19803969 -.00000067  00000-0  00000+0 0  9994
2 39334  25.2199 221.3006 7377149  75.9822  18.9039  1.86382293 99052
Epoch: 2026-08-22T04:45Z
TLE epoch observation values (Epoch: 2026-08-22T04:45:10.629Z)
Latitude
0.19179°
Longitude
-1.02293°
Altitude
8,920.402 km
Speed
6.149 km/s
True Right ascension
02h 43m 07s
True Declination
0° 11' 29"
Sunlit
Object was in daylight at epoch
Visualization orbit readout
Latitude
Unknown
Longitude
Unknown
Altitude
Unknown
Speed
Unknown
Apparent Right ascension
Unknown
Apparent Declination
Unknown
Sunlit
N/A
Visualization observer readout
Local Sidereal Time
00:45:36
Azimuth
Unknown
Elevation
Unknown
Doppler factor
Unknown
Orbital elements
Apogee altitude
42,095.136 km
Perigee altitude
938.263 km
Semi-major axis
27,894.837 km
Eccentricity
0.73771
Inclination
25.2199°
RAAN
221.3006°
Arg. of periapsis
75.9822°
True anomaly
103.39736°
Mean anomaly
18.9039°
Eccentric anomaly
52.3861°
Mean motion
0.46586 °/min
Orbital period
772.76 mins
BSTAR
0
Loading maneuver chart data...
Computing Atmospheric mass density...
Loading historical data...
Loading historical data...
Loading historical data...
Loading historical data...
Loading historical data...
Loading historical data...
Loading historical data...

Documentation

Showing up to 5 results
|